Terminal Aerodrome Forecast
Issued by NWS

Current Version | Previous Version | Text Only | Print | Product List | Glossary On
Versions: 1 2 3 4 5 6 7 8 9 10 11 12 13 14 15 16 17 18 19 20 21 22 23 24 25 26 27 28 29 30 31 32 33 34 35 36 37 38 39 40 41 42 43 44 45 46 47 48 49
000
FTUS41 KBOX 211128
TAFMHT
TAF
KMHT 211128Z 2112/2212 VRB03KT P6SM OVC150
     FM211800 08005KT P6SM OVC025
     FM212100 05005KT P6SM OVC015
     FM212300 03006KT 3SM BR OVC010
     FM220900 36008KT 5SM -SHRA BR OVC008=

USA.gov is the U.S. government's official web portal to all federal, state and local government web resources and services.